User: anonymous   Login
Location: Unspecified
(0.0000°N, 0.0000°E)
Time: 18:48:13
(UTC+00:00)
Language:

SMS 1 - Orbit

View from above orbital plane
View from above orbital plane
View from above satellite
View from above satellite

Ground track
Ground track

The orbit data is extracted from the following two-line orbital elements,

1  7298U 74033A   17145.29406340 -.00000258 +00000-0 +00000-0 0  9995
2  7298 012.0798 306.6092 0018253 334.7826 215.3150 00.98614870087233
Epoch (UTC): 25 May 2017 07:03:27
Eccentricity: 0.0018253
inclination: 12.0798°
perigee height: 36179 km
apogee height: 36335 km
right ascension of ascending node: 306.6092°
argument of perigee: 334.7826°
revolutions per day: 0.98614870
mean anomaly at epoch: 215.3150°
orbit number at epoch: 8723

The dashed part of the orbit path shows where the satellite is in the earth's shadow,  

DLR